This demonstration page uses our WeatherBlox Daily Observations layout. Learn more.

Left ArrowRight Arrow

39.51506, -84.39828

Hourly Observations for January 7, 2019

Temp ( °F °C ) Dew Point ( °F °C ) Humidity (%) Winds ( mph kmh ) Pressure ( in mb ) Visibility ( mi km ) Precip ( " mm )
12:15 am 00:15 Partly Cloudy 42 5.7 34 1.1 73 73 E 3 6 30.30 1026 10 16 0.00 0.00
12:35 am 00:35 Partly Cloudy 42 5.7 34 1.1 73 73 E 5 7 30.27 1025 10 16 0.00 0.00
12:55 am 00:55 Clear 42 5.7 34 1.1 73 73 E 8 13 30.21 1023 10 16 0.00 0.00
1:15 am 01:15 Mostly Cloudy 42 5.7 34 1.1 73 73 E 9 15 30.21 1023 10 16 0.00 0.00
1:35 am 01:35 Clear 42 5.7 34 0.9 72 72 E 6 9 30.21 1023 10 16 0.00 0.00
1:55 am 01:55 Clear 42 5.5 34 1 73 73 E 9 15 30.18 1022 10 16 0.00 0.00
2:15 am 02:15 Partly Cloudy 42 5.5 34 1 73 73 E 8 13 30.18 1022 10 16 0.00 0.00
2:35 am 02:35 Partly Cloudy 42 5.4 34 1 74 74 ESE 7 11 30.18 1022 10 16 0.00 0.00
2:55 am 02:55 Clear 42 5.5 34 1 73 73 E 7 11 30.18 1022 10 16 0.00 0.00
3:15 am 03:15 Clear 42 5.5 34 1.1 74 74 E 5 7 30.18 1022 10 16 0.00 0.00
3:35 am 03:35 Clear 42 5.3 34 1.1 75 75 ENE 8 13 30.15 1021 10 16 0.00 0.00
3:55 am 03:55 Clear 41 5.2 34 1.2 76 76 ENE 3 6 30.18 1022 10 16 0.00 0.00
4:15 am 04:15 Clear 42 5.6 34 1 73 73 E 5 7 30.18 1022 10 16 0.00 0.00
4:35 am 04:35 Clear 42 5.6 34 1.1 73 73 E 5 7 30.15 1021 10 16 0.00 0.00
4:55 am 04:55 Clear 42 5.6 34 1.1 73 73 ENE 5 7 30.15 1021 10 16 0.00 0.00
5:15 am 05:15 Clear 42 5.4 34 1.1 74 74 E 5 7 30.15 1021 10 16 0.00 0.00
5:35 am 05:35 Clear 42 5.6 34 1 73 73 Calm 30.15 1021 10 16 0.00 0.00
5:55 am 05:55 Clear 42 5.3 34 1.1 75 75 ENE 3 6 30.15 1021 10 16 0.00 0.00
6:15 am 06:15 Clear 41 4.8 34 1.3 78 78 ENE 5 7 30.18 1022 10 16 0.00 0.00
6:35 am 06:35 Clear 41 4.8 34 1.3 78 78 NE 3 6 30.18 1022 10 16 0.00 0.00
6:55 am 06:55 Clear 40 4.7 34 1.3 79 79 ENE 5 7 30.12 1020 10 16 0.00 0.00
7:15 am 07:15 Clear 41 4.8 34 1.3 78 78 Calm 30.12 1020 10 16 0.00 0.00
7:35 am 07:35 Clear 41 4.9 35 1.4 78 78 NE 3 6 30.12 1020 10 16 0.00 0.00
7:55 am 07:55 Clear 41 4.8 35 1.5 79 79 NE 3 6 30.12 1020 10 16 0.00 0.00
8:15 am 08:15 Sunny 41 4.9 35 1.6 79 79 NE 3 6 30.12 1020 10 16 0.00 0.00
8:35 am 08:35 Sunny 41 5.2 35 1.5 77 77 Calm 30.12 1020 10 16 0.00 0.00
8:55 am 08:55 Sunny 42 5.8 35 1.6 75 75 E 6 9 30.09 1019 10 16 0.00 0.00
9:15 am 09:15 Sunny 44 6.4 35 1.9 73 73 SSE 6 9 30.09 1019 10 16 0.00 0.00
9:35 am 09:35 Sunny 44 6.7 36 2.1 73 73 ESE 6 9 30.03 1017 10 16 0.00 0.00
9:55 am 09:55 Sunny 46 7.5 37 2.5 71 71 SSE 6 9 30.06 1018 10 16 0.00 0.00
10:15 am 10:15 Sunny 46 7.6 37 2.8 72 72 SE 10 17 30.03 1017 10 16 0.00 0.00
10:35 am 10:35 Sunny 47 8.1 37 3 71 71 SSE 8 13 30.03 1017 10 16 0.00 0.00
10:55 am 10:55 Sunny 47 8.6 38 3.5 71 71 SSE 7 11 30.03 1017 10 16 0.00 0.00
11:15 am 11:15 Sunny 48 9 39 3.7 70 70 SSE 8 13 30.03 1017 10 16 0.00 0.00
11:35 am 11:35 Sunny 49 9.5 39 4 69 69 S 6 9 30.00 1016 10 16 0.00 0.00
11:55 am 11:55 Sunny 49 9.3 39 3.9 69 69 SE 7 11 29.97 1015 10 16 0.00 0.00
12:15 pm 12:15 Sunny 50 9.8 40 4.4 69 69 SSE 5 7 29.94 1014 10 16 0.00 0.00
12:35 pm 12:35 Sunny 51 10.7 40 4.6 66 66 S 8 13 29.94 1014 10 16 0.00 0.00
12:55 pm 12:55 Sunny 53 11.7 41 5.1 64 64 S 9 15 29.91 1013 10 16 0.00 0.00
1:15 pm 13:15 Sunny 54 12.3 41 5.2 62 62 S 15 24 29.91 1013 10 16 0.00 0.00
1:35 pm 13:35 Sunny 55 12.8 42 5.4 61 61 S 14 22 29.88 1012 10 16 0.00 0.00
1:55 pm 13:55 Sunny 56 13.1 42 5.5 60 60 S 15 24 29.88 1012 10 16 0.00 0.00
2:15 pm 14:15 Sunny 56 13.3 42 5.6 60 60 S 13 20 29.88 1012 10 16 0.00 0.00
2:35 pm 14:35 Mostly Cloudy 56 13.2 42 5.6 60 60 S 12 19 29.88 1012 10 16 0.00 0.00
2:55 pm 14:55 Cloudy 55 13 43 6.2 64 64 S 13 20 29.85 1011 10 16 0.00 0.00
3:15 pm 15:15 Cloudy 57 13.9 42 5.7 58 58 S 13 20 29.83 1010 10 16 0.00 0.00
3:35 pm 15:35 Cloudy 58 14.6 42 5.6 55 55 S 18 30 29.83 1010 10 16 0.00 0.00
3:55 pm 15:55 Cloudy 59 14.9 41 5.2 53 53 SSW 14 22 29.83 1010 10 16 0.00 0.00
4:15 pm 16:15 Cloudy with Light Rain 59 14.9 41 5.2 53 53 SSW 24 39 29.83 1010 10 16 0.00 0.00
4:35 pm 16:35 Cloudy 58 14.7 41 5 52 52 SW 18 30 29.83 1010 10 16 0.00 0.00
4:55 pm 16:55 Cloudy 59 14.8 41 4.9 52 52 SSW 20 31 29.83 1010 10 16 0.00 0.00
5:15 pm 17:15 Cloudy 58 14.4 42 5.7 56 56 SW 29 46 29.83 1010 10 16 0.00 0.00
5:35 pm 17:35 Cloudy 58 14.3 42 5.5 56 56 SSW 20 31 29.83 1010 10 16 0.00 0.00
5:55 pm 17:55 Cloudy 58 14.2 43 6.2 59 59 SW 25 41 29.85 1011 10 16 0.00 0.00
6:15 pm 18:15 Cloudy 57 14.1 43 6.2 59 59 SSW 21 33 29.83 1010 10 16 0.00 0.00
6:35 pm 18:35 Cloudy 57 13.9 44 6.4 61 61 SSW 18 30 29.88 1012 10 16 0.00 0.00
6:55 pm 18:55 Cloudy 57 14 45 7.1 63 63 SSW 24 39 29.88 1012 10 16 0.00 0.00
7:15 pm 19:15 Cloudy 56 13.5 46 7.5 67 67 SW 20 31 29.88 1012 10 16 0.00 0.00
7:35 pm 19:35 Cloudy 56 13.3 45 7.4 68 68 SW 15 24 29.88 1012 10 16 0.00 0.00
7:55 pm 19:55 Cloudy 56 13.6 46 7.7 68 68 SSW 20 31 29.88 1012 10 16 0.00 0.00
8:15 pm 20:15 Cloudy 57 13.7 46 7.8 68 68 SSW 20 31 29.88 1012 10 16 0.00 0.00
8:35 pm 20:35 Cloudy 56 13.6 46 7.9 69 69 SW 15 24 29.88 1012 10 16 0.00 0.00
8:55 pm 20:55 Cloudy 57 13.7 47 8.1 69 69 SSW 16 26 29.88 1012 10 16 0.00 0.00
9:15 pm 21:15 Cloudy 56 13.6 47 8.2 70 70 SW 15 24 29.91 1013 10 16 0.00 0.00
9:35 pm 21:35 Cloudy 57 14 46 8 67 67 SW 18 30 29.91 1013 10 16 0.00 0.00
9:55 pm 21:55 Cloudy 57 13.7 48 8.8 72 72 SW 16 26 29.94 1014 10 16 0.00 0.00
10:15 pm 22:15 Cloudy 57 13.7 48 9.1 74 74 SW 17 28 29.94 1014 10 16 0.00 0.00
10:35 pm 22:35 Mostly Cloudy 56 13.4 49 9.2 76 76 SSW 14 22 29.94 1014 10 16 0.00 0.00
10:55 pm 22:55 Mostly Cloudy 56 13.1 49 9.4 78 78 SW 13 20 29.91 1013 10 16 0.00 0.00
11:15 pm 23:15 Cloudy 56 13.3 49 9.6 78 78 SSW 14 22 29.94 1014 10 16 0.00 0.00
11:35 pm 23:35 Cloudy 55 12.9 49 9.6 81 81 SW 10 17 29.94 1014 10 16 0.00 0.00
11:55 pm 23:55 Cloudy 55 13 50 9.8 81 81 SW 12 19 29.91 1013 10 16 0.00 0.00

Powered by AerisWeather